ソーホー彗星

342P/SOHO (2005)

English version
Home page
Updated on September 6, 2016

---------------------------------------------------------------------

・ プロフィール

符号 342P/2005 W4

・ 軌道要素

Epoch 2005 Nov. 6.0 TT = JDT 2453680.5
T 2005 Nov. 23.49100 TT                                 MPCW
q   0.0547943            (2000.0)            P               Q
n   0.18537642     Peri.   46.48879     -0.17611652     -0.96309417
a   3.0462560      Node    54.74485     +0.81587043     -0.25851109
e   0.9820126      Incl.   14.43422     +0.55076166     +0.07497756
P   5.32
From 208 observations 2000 July 30-2011 Mar. 10.  Nongravitational
     parameters A1 = +0.00, A2 = +0.0015.

---------------------------------------------------------------------

軌道要素はM.P.E.C. 2016-P77に掲載されたものです。

---------------------------------------------------------------------

Copyright(C) Seiichi Yoshida (comet@aerith.net). All rights reserved.